Home   Weather   Narva   Past weeks

Flag for Estonia Past Weather in Narva, Estonia — Yesterday and Last 2 Weeks

Now
54 °F

Scattered clouds.


Feels Like: 52 °F
Forecast: 51 / 61 °F
Wind: 7 mph from Southwest

Location: Narva

Current Time: Jun 26, 2017 at 9:57:43 pm

Latest Report: Jun 26, 2017 at 9:00 pm


Visibility: 13 mi

Pressure: 29.41 "Hg

Humidity: 77%

Dew Point: 47 °F

Location of NarvaLocation

Past Weather in Narva — Graph

°F

Narva Temperature Yesterday

Maximum temperature yesterday: 69 °F (at 1:00 pm)
Minimum temperature yesterday: 54 °F (at 3:00 am)
Average temperature yesterday: 61 °F

High & Low Weather Summary for the Past Weeks

 TemperatureHumidityPressure
High71 °F (Jun 17, 1:00 pm)100% (Jun 11, 10:00 pm)29.93 "Hg (Jun 11, 10:00 pm)
Low37 °F (Jun 16, 3:00 am)24% (Jun 15, 1:00 pm)29.23 "Hg (Jun 13, 6:00 am)
Average57 °F79%29.64 "Hg
* Reported Jun 11 8:00 pm — Jun 26 8:00 pm, Narva. Weather by CustomWeather, © 2017

Note: Actual official high and low records may vary slightly from our data, if they occured in-between our weather recording intervals... More about our weather records

Advertising

Narva Weather History for the Previous 24 Hours

Scroll right to see more
 ConditionsComfort  
Time TempWeatherWind HumidityBarometerVisibility
8:00 pm
Mon, Jun 26
56 °FPartly sunny.6 mph72%29.38 "Hg12 mi
7:00 pm57 °FScattered clouds.6 mph74%29.38 "Hg12 mi
6:00 pm54 °FRain showers. Overcast.5 mph80%29.38 "Hg12 mi
5:00 pm56 °FPartly sunny.1 mph86%29.41 "Hg12 mi
4:00 pm57 °FPartly sunny.2 mph83%29.38 "Hg12 mi
3:00 pm54 °FRain showers. Partly sunny.3 mph88%29.41 "Hg12 mi
2:00 pm53 °FRain showers. Overcast.5 mph86%29.41 "Hg12 mi
1:00 pm60 °FPartly sunny.5 mph80%29.38 "Hg12 mi
12:00 pm54 °FLight rain. Partly sunny.9 mph79%29.41 "Hg12 mi
11:00 am61 °FPartly sunny.7 mph70%29.38 "Hg12 mi
10:00 am60 °FScattered clouds.7 mph72%29.41 "Hg12 mi
9:00 am58 °FPartly sunny.7 mph77%29.41 "Hg12 mi
8:00 am58 °FPartly sunny.6 mph81%29.41 "Hg12 mi
7:00 am57 °FPassing clouds.7 mph83%29.41 "Hg12 mi
6:00 am55 °FOvercast.6 mph87%29.41 "Hg12 mi
5:00 am54 °FOvercast.5 mph86%29.44 "Hg12 mi
4:00 am54 °FPassing clouds.5 mph85%29.44 "Hg12 mi
3:00 am54 °FPassing clouds.3 mph77%29.44 "Hg12 mi
2:00 am55 °FOvercast.2 mph77%29.47 "Hg12 mi
1:00 am55 °FPassing clouds.3 mph75%29.47 "Hg12 mi
12:00 am57 °FOvercast.3 mph67%29.47 "Hg12 mi
11:00 pm
Sun, Jun 25
58 °FRain showers. Overcast.5 mph63%29.47 "Hg12 mi
10:00 pm59 °FRain showers. Partly sunny.5 mph57%29.50 "Hg12 mi
9:00 pm60 °FPartly sunny.3 mph57%29.47 "Hg12 mi
Weather by CustomWeather, © 2017

See weather overviewHow to use our weather pages